{"data":{"norad_id":65585,"epoch":"2026-09-19T09:16:10.123392Z","epoch_age_seconds":110540,"freshness":"FRESH","line1":"1 65585U 25203W   26262.38622828  .00000367  00000+0  32442-3 0  9991","line2":"2 65585  81.3012 283.9434 0004707 318.7093  41.3707 13.83175651 51703","mean_motion":13.83175651,"eccentricity":0.0004707,"inclination_deg":81.3012,"raan_deg":283.9434,"arg_perigee_deg":318.7093,"mean_anomaly_deg":41.3707,"bstar":0.00032442,"rev_number":5170,"period_min":104.10825255338,"perigee_km":949.19405916316,"apogee_km":956.09525701609,"semimajor_km":7330.7816580896,"source":"CELESTRAK","updated_at":"2026-09-20T09:00:47.719093Z"}}